2022-02-19 00:03:04 r, 18.27m,0000000004Hz,0000112117c,0000000.243s,-010.4C,00002191
2022-02-19 00:13:06 r, 18.26m,0000000004Hz,0000110168c,0000000.239s,-010.7C,00002191
2022-02-19 00:23:04 r, 18.19m,0000000004Hz,0000103442c,0000000.224s,-010.7C,00002191
2022-02-19 00:33:04 r, 18.15m,0000000004Hz,0000099997c,0000000.217s,-010.7C,00002191
2022-02-19 00:43:06 r, 18.11m,0000000005Hz,0000096038c,0000000.208s,-011.0C,00002191
2022-02-19 00:53:04 r, 18.07m,0000000005Hz,0000092393c,0000000.201s,-011.3C,00002191
2022-02-19 01:03:04 r, 18.02m,0000000006Hz,0000088873c,0000000.193s,-011.3C,00002191
2022-02-19 01:13:04 r, 18.06m,0000000005Hz,0000091936c,0000000.200s,-011.3C,00002191
2022-02-19 01:23:05 r, 18.00m,0000000005Hz,0000087476c,0000000.190s,-011.7C,00002191
2022-02-19 01:33:04 r, 17.94m,0000000005Hz,0000082609c,0000000.179s,-011.7C,00002191
2022-02-19 01:43:05 r, 18.15m,0000000005Hz,0000099916c,0000000.217s,-011.3C,00002191
2022-02-19 01:53:04 r, 17.88m,0000000006Hz,0000078248c,0000000.170s,-011.3C,00002191
2022-02-19 02:03:04 r, 17.87m,0000000006Hz,0000077556c,0000000.168s,-011.7C,00002191
2022-02-19 02:13:04 r, 18.05m,0000000005Hz,0000090665c,0000000.197s,-011.7C,00002191
2022-02-19 02:23:06 r, 18.16m,0000000005Hz,0000100990c,0000000.219s,-011.7C,00002191
2022-02-19 02:33:04 r, 17.78m,0000000006Hz,0000071165c,0000000.154s,-011.3C,00002191
2022-02-19 02:43:04 r, 17.76m,0000000007Hz,0000069731c,0000000.151s,-011.3C,00002191
2022-02-19 02:53:04 r, 17.78m,0000000007Hz,0000070899c,0000000.154s,-011.7C,00002191
2022-02-19 03:03:04 r, 17.78m,0000000007Hz,0000070843c,0000000.154s,-011.7C,00002191
2022-02-19 03:13:04 r, 17.72m,0000000007Hz,0000067488c,0000000.146s,-011.7C,00002191
2022-02-19 03:23:04 r, 17.70m,0000000007Hz,0000065633c,0000000.142s,-011.7C,00002191
2022-02-19 03:33:04 r, 17.75m,0000000007Hz,0000069497c,0000000.151s,-011.7C,00002191
2022-02-19 03:43:04 r, 17.79m,0000000006Hz,0000071699c,0000000.156s,-011.3C,00002191
2022-02-19 03:53:05 r, 17.79m,0000000006Hz,0000072017c,0000000.156s,-011.3C,00002191
2022-02-19 04:03:04 r, 17.84m,0000000006Hz,0000074775c,0000000.162s,-011.3C,00002191
2022-02-19 04:13:04 r, 17.88m,0000000006Hz,0000077850c,0000000.169s,-011.0C,00002191
2022-02-19 04:23:06 r, 17.85m,0000000006Hz,0000076176c,0000000.165s,-010.7C,00002191
2022-02-19 04:33:04 r, 17.89m,0000000006Hz,0000078444c,0000000.170s,-010.4C,00002191
2022-02-19 04:43:04 r, 17.96m,0000000005Hz,0000084467c,0000000.183s,-010.4C,00002191
2022-02-19 04:53:04 r, 18.02m,0000000005Hz,0000088379c,0000000.192s,-010.4C,00002191
2022-02-19 05:03:04 r, 18.03m,0000000006Hz,0000089482c,0000000.194s,-010.4C,00002191
2022-02-19 05:13:04 r, 18.06m,0000000005Hz,0000091266c,0000000.198s,-010.4C,00002191
2022-02-19 05:23:04 r, 18.12m,0000000005Hz,0000096785c,0000000.210s,-010.0C,00002191
2022-02-19 05:33:04 r, 18.05m,0000000005Hz,0000090759c,0000000.197s,-010.4C,00002191
2022-02-19 05:43:04 r, 18.06m,0000000005Hz,0000092144c,0000000.200s,-010.4C,00002191
2022-02-19 05:53:05 r, 18.11m,0000000005Hz,0000096662c,0000000.210s,-010.7C,00002191
2022-02-19 06:03:04 r, 18.16m,0000000005Hz,0000100975c,0000000.219s,-010.7C,00002191
2022-02-19 06:13:04 r, 17.83m,0000000006Hz,0000074749c,0000000.162s,-010.7C,00002191
2022-02-19 06:23:06 r, 17.22m,0000000011Hz,0000042741c,0000000.093s,-010.4C,00002191
2022-02-19 06:33:04 r, 17.23m,0000000011Hz,0000042941c,0000000.093s,-009.7C,00002191
2022-02-19 06:43:04 r, 15.88m,0000000037Hz,0000012395c,0000000.027s,-009.4C,00002191
2022-02-19 06:53:06 r, 14.21m,0000000174Hz,0000000000c,0000000.000s,-009.4C,00002191
2022-02-19 07:03:04 r, 12.22m,0000001094Hz,0000000000c,0000000.000s,-009.4C,00002191
2022-02-19 07:13:04 r, 10.36m,0000006060Hz,0000000000c,0000000.000s,-009.4C,00002191
2022-02-19 07:23:04 r, 08.64m,0000029674Hz,0000000000c,0000000.000s,-009.4C,00002191
2022-02-19 07:33:04 r, 07.47m,0000086883Hz,0000000000c,0000000.000s,-009.4C,00002191
2022-02-19 07:43:04 r, 06.55m,0000202308Hz,0000000000c,0000000.000s,-009.1C,00002191
2022-02-19 07:53:04 r, 05.89m,0000372121Hz,0000000000c,0000000.000s,-008.4C,00002191
2022-02-19 08:03:04 r, 00.00m,0000600149Hz,0000000000c,0000000.000s,-008.1C,00002191
2022-02-19 08:13:04 r, 00.00m,0000599794Hz,0000000000c,0000000.000s,-007.8C,00002191
2022-02-19 08:23:05 r, 00.00m,0000599644Hz,0000000000c,0000000.000s,-007.1C,00002191
2022-02-19 08:33:04 r, 00.00m,0000599499Hz,0000000000c,0000000.000s,-006.5C,00002191
2022-02-19 08:43:04 r, 00.00m,0000599564Hz,0000000000c,0000000.000s,-005.9C,00002191
2022-02-19 08:53:06 r, 00.00m,0000599471Hz,0000000000c,0000000.000s,-005.2C,00002191
2022-02-19 09:03:04 r, 00.00m,0000599428Hz,0000000000c,0000000.000s,-004.2C,00002191
2022-02-19 09:13:04 r, 00.00m,0000599410Hz,0000000000c,0000000.000s,-003.9C,00002191
2022-02-19 09:23:04 r, 00.00m,0000599209Hz,0000000000c,0000000.000s,-003.3C,00002191
2022-02-19 09:33:05 r, 00.00m,0000599165Hz,0000000000c,0000000.000s,-002.3C,00002191
2022-02-19 09:43:03 r, 00.00m,0000599074Hz,0000000000c,0000000.000s,-000.7C,00002191
2022-02-19 09:53:05 r, 00.00m,0000598988Hz,0000000000c,0000000.000s, 000.3C,00002191
2022-02-19 10:03:04 r, 00.00m,0000598973Hz,0000000000c,0000000.000s, 000.6C,00002191
2022-02-19 10:13:04 r, 00.00m,0000598938Hz,0000000000c,0000000.000s, 000.9C,00002191
2022-02-19 10:23:04 r, 00.00m,0000598995Hz,0000000000c,0000000.000s, 000.9C,00002191
2022-02-19 10:33:06 r, 00.00m,0000598871Hz,0000000000c,0000000.000s, 001.2C,00002191
2022-02-19 10:43:03 r, 00.00m,0000598938Hz,0000000000c,0000000.000s, 001.6C,00002191
2022-02-19 10:53:04 r, 00.00m,0000598887Hz,0000000000c,0000000.000s, 001.9C,00002191
2022-02-19 11:03:04 r, 00.00m,0000598941Hz,0000000000c,0000000.000s, 001.6C,00002191
2022-02-19 11:13:03 r, 00.00m,0000598894Hz,0000000000c,0000000.000s, 001.9C,00002191
2022-02-19 11:23:06 r, 00.00m,0000598945Hz,0000000000c,0000000.000s, 001.6C,00002191
2022-02-19 11:33:04 r, 00.00m,0000599014Hz,0000000000c,0000000.000s, 001.9C,00002191
2022-02-19 11:43:03 r, 00.00m,0000598976Hz,0000000000c,0000000.000s, 001.9C,00002191
2022-02-19 11:53:04 r, 00.00m,0000599005Hz,0000000000c,0000000.000s, 002.2C,00002191
2022-02-19 12:03:05 r, 00.00m,0000599014Hz,0000000000c,0000000.000s, 002.2C,00002191
2022-02-19 12:13:04 r, 00.00m,0000598979Hz,0000000000c,0000000.000s, 002.5C,00002191
2022-02-19 12:23:03 r, 00.00m,0000598764Hz,0000000000c,0000000.000s, 002.9C,00002191
2022-02-19 12:33:06 r, 00.00m,0000598780Hz,0000000000c,0000000.000s, 003.5C,00002191
2022-02-19 12:43:03 r, 00.00m,0000598800Hz,0000000000c,0000000.000s, 003.5C,00002191
2022-02-19 12:53:03 r, 00.00m,0000598820Hz,0000000000c,0000000.000s, 003.5C,00002191
2022-02-19 13:03:06 r, 00.00m,0000598751Hz,0000000000c,0000000.000s, 003.8C,00002191
2022-02-19 13:13:03 r, 00.00m,0000598720Hz,0000000000c,0000000.000s, 004.1C,00002191
2022-02-19 13:23:06 r, 00.00m,0000598612Hz,0000000000c,0000000.000s, 004.8C,00002191
2022-02-19 13:33:04 r, 00.00m,0000598618Hz,0000000000c,0000000.000s, 005.1C,00002191
2022-02-19 13:43:04 r, 00.00m,0000598601Hz,0000000000c,0000000.000s, 005.4C,00002191
2022-02-19 13:53:06 r, 00.00m,0000598410Hz,0000000000c,0000000.000s, 006.1C,00002191
2022-02-19 14:03:04 r, 00.00m,0000598482Hz,0000000000c,0000000.000s, 006.4C,00002191
2022-02-19 14:13:03 r, 00.00m,0000598415Hz,0000000000c,0000000.000s, 006.7C,00002191
2022-02-19 14:23:04 r, 00.00m,0000598572Hz,0000000000c,0000000.000s, 006.7C,00002191
2022-02-19 14:33:05 r, 00.00m,0000598349Hz,0000000000c,0000000.000s, 006.7C,00002191
2022-02-19 14:43:03 r, 00.00m,0000598557Hz,0000000000c,0000000.000s, 006.7C,00002191
2022-02-19 14:53:03 r, 00.00m,0000598470Hz,0000000000c,0000000.000s, 006.7C,00002191
2022-02-19 15:03:06 r, 00.00m,0000598526Hz,0000000000c,0000000.000s, 006.4C,00002191
2022-02-19 15:13:03 r, 00.00m,0000598558Hz,0000000000c,0000000.000s, 006.4C,00002191
2022-02-19 15:23:05 r, 00.00m,0000598533Hz,0000000000c,0000000.000s, 006.4C,00002191
2022-02-19 15:33:04 r, 00.00m,0000598597Hz,0000000000c,0000000.000s, 006.1C,00002191
2022-02-19 15:43:03 r, 00.00m,0000598663Hz,0000000000c,0000000.000s, 006.1C,00002191
2022-02-19 15:53:06 r, 00.00m,0000598698Hz,0000000000c,0000000.000s, 006.1C,00002191
2022-02-19 16:03:04 r, 00.00m,0000598515Hz,0000000000c,0000000.000s, 006.1C,00002191
2022-02-19 16:13:03 r, 00.00m,0000598697Hz,0000000000c,0000000.000s, 006.1C,00002191
2022-02-19 16:23:06 r, 00.00m,0000598560Hz,0000000000c,0000000.000s, 005.8C,00002191
2022-02-19 16:33:04 r, 00.00m,0000598705Hz,0000000000c,0000000.000s, 005.8C,00002191
2022-02-19 16:43:03 r, 00.00m,0000598694Hz,0000000000c,0000000.000s, 005.4C,00002191
2022-02-19 16:53:04 r, 00.00m,0000598834Hz,0000000000c,0000000.000s, 005.4C,00002191
2022-02-19 17:03:05 r, 00.00m,0000598771Hz,0000000000c,0000000.000s, 005.8C,00002191
2022-02-19 17:13:03 r, 00.00m,0000590270Hz,0000000000c,0000000.000s, 005.4C,00002191
2022-02-19 17:23:05 r, 05.82m,0000396241Hz,0000000000c,0000000.000s, 005.8C,00002191
2022-02-19 17:33:04 r, 06.37m,0000240368Hz,0000000000c,0000000.000s, 005.8C,00002191
2022-02-19 17:43:03 r, 07.07m,0000125362Hz,0000000000c,0000000.000s, 005.8C,00002191
2022-02-19 17:53:04 r, 07.95m,0000055979Hz,0000000000c,0000000.000s, 006.1C,00002191
2022-02-19 18:03:06 r, 09.12m,0000019194Hz,0000000000c,0000000.000s, 006.1C,00002191
2022-02-19 18:13:03 r, 10.88m,0000003746Hz,0000000000c,0000000.000s, 006.4C,00002191
2022-02-19 18:23:03 r, 12.86m,0000000605Hz,0000000000c,0000000.000s, 006.7C,00002191
2022-02-19 18:33:04 r, 14.74m,0000000107Hz,0000004337c,0000000.009s, 006.7C,00002191
2022-02-19 18:43:03 r, 16.22m,0000000027Hz,0000016949c,0000000.037s, 007.0C,00002191
2022-02-19 18:53:04 r, 16.87m,0000000015Hz,0000030761c,0000000.067s, 007.4C,00002191
2022-02-19 19:03:05 r, 16.94m,0000000014Hz,0000032835c,0000000.071s, 007.4C,00002191
2022-02-19 19:13:03 r, 16.88m,0000000015Hz,0000030956c,0000000.067s, 007.7C,00002191
2022-02-19 19:23:03 r, 16.86m,0000000015Hz,0000030494c,0000000.066s, 007.7C,00002191
2022-02-19 19:33:06 r, 16.88m,0000000015Hz,0000030989c,0000000.067s, 008.0C,00002191
2022-02-19 19:43:03 r, 16.88m,0000000015Hz,0000031023c,0000000.067s, 008.3C,00002191
2022-02-19 19:53:03 r, 16.86m,0000000016Hz,0000030268c,0000000.066s, 008.3C,00002191
2022-02-19 20:03:06 r, 16.86m,0000000015Hz,0000030247c,0000000.066s, 008.7C,00002191
2022-02-19 20:13:03 r, 16.90m,0000000014Hz,0000031510c,0000000.068s, 008.7C,00002191
2022-02-19 20:23:03 r, 16.89m,0000000015Hz,0000031314c,0000000.068s, 008.7C,00002191
2022-02-19 20:33:04 r, 16.84m,0000000015Hz,0000029771c,0000000.065s, 008.7C,00002191
2022-02-19 20:43:03 r, 16.85m,0000000016Hz,0000030128c,0000000.065s, 008.7C,00002191
2022-02-19 20:53:03 r, 16.86m,0000000016Hz,0000030478c,0000000.066s, 008.7C,00002191
2022-02-19 21:03:04 r, 16.79m,0000000016Hz,0000028465c,0000000.062s, 008.7C,00002191
2022-02-19 21:13:03 r, 16.80m,0000000016Hz,0000028549c,0000000.062s, 009.0C,00002191
2022-02-19 21:23:03 r, 16.77m,0000000016Hz,0000027748c,0000000.060s, 009.0C,00002191
2022-02-19 21:33:05 r, 16.76m,0000000017Hz,0000027528c,0000000.060s, 009.0C,00002191
2022-02-19 21:43:03 r, 16.73m,0000000017Hz,0000026786c,0000000.058s, 009.3C,00002191
2022-02-19 21:53:03 r, 16.72m,0000000017Hz,0000026434c,0000000.057s, 009.3C,00002191
2022-02-19 22:03:06 r, 16.90m,0000000015Hz,0000031455c,0000000.068s, 009.3C,00002191
2022-02-19 22:13:03 r, 17.09m,0000000012Hz,0000037164c,0000000.081s, 009.6C,00002191
2022-02-19 22:23:03 r, 17.16m,0000000011Hz,0000040357c,0000000.088s, 009.9C,00002191
2022-02-19 22:33:06 r, 17.45m,0000000008Hz,0000051853c,0000000.113s, 009.9C,00002191
2022-02-19 22:43:03 r, 17.62m,0000000007Hz,0000060997c,0000000.132s, 010.3C,00002191
2022-02-19 22:53:03 r, 17.68m,0000000007Hz,0000065019c,0000000.141s, 010.6C,00002191
2022-02-19 23:03:04 r, 17.72m,0000000007Hz,0000067255c,0000000.146s, 010.6C,00002191
2022-02-19 23:13:03 r, 17.74m,0000000007Hz,0000068128c,0000000.148s, 010.9C,00002191
2022-02-19 23:23:03 r, 17.70m,0000000007Hz,0000065737c,0000000.143s, 010.9C,00002191
2022-02-19 23:33:04 r, 17.82m,0000000007Hz,0000074168c,0000000.161s, 011.2C,00002191
2022-02-19 23:43:03 r, 17.90m,0000000006Hz,0000079440c,0000000.172s, 011.2C,00002191
2022-02-19 23:53:03 r, 17.94m,0000000006Hz,0000082754c,0000000.180s, 010.9C,00002191
